When you browse on this site, cookies collect data to enhance your experience and personalize the content and advertising you see.
Visit our Privacy Policy to learn more. By continuing to use the site, you agree to this use of cookies and data.
  • Em Portugal
  • Lista de países
  • Para 7 dias
  • Temperatura da água
  • Mapa do tempo
  • Widgets de tempo
  • user-avatar
    Iniciar Sessão

    Previsão horária em Mikshino

    Hoje, 25 Agosto, Domingo

    Tempo Temperatura Precipitação Vento Pressão Humidade
    00:00 +12°C° 0 mm 2 m/s 752 mmHg 94%
    01:00 +10°C° 0 mm 2 m/s 753 mmHg 95%
    02:00 +10°C° 0 mm 2 m/s 753 mmHg 96%
    03:00 +10°C° 0 mm 2 m/s 753 mmHg 96%
    04:00 +9°C° 0 mm 2 m/s 753 mmHg 97%
    05:00 +9°C° 0 mm 2 m/s 754 mmHg 97%
    06:00 +12°C° 0 mm 2 m/s 754 mmHg 91%
    07:00 +14°C° 0 mm 2 m/s 754 mmHg 85%
    08:00 +14°C° 0 mm 3 m/s 755 mmHg 78%
    09:00 +17°C° 0 mm 3 m/s 755 mmHg 73%
    10:00 +18°C° 0 mm 3 m/s 755 mmHg 68%
    11:00 +19°C° 0 mm 3 m/s 755 mmHg 62%
    12:00 +20°C° 0 mm 2 m/s 755 mmHg 61%
    13:00 +20°C° 0 mm 2 m/s 756 mmHg 60%
    14:00 +21°C° 0 mm 2 m/s 756 mmHg 59%
    15:00 +20°C° 0 mm 2 m/s 756 mmHg 63%
    16:00 +21°C° 0 mm 1 m/s 755 mmHg 66%
    17:00 +20°C° 0 mm 1 m/s 755 mmHg 70%
    18:00 +19°C° 0 mm 1 m/s 755 mmHg 74%
    19:00 +16°C° 0 mm 1 m/s 756 mmHg 78%
    20:00 +15°C° 0 mm 1 m/s 756 mmHg 82%
    21:00 +14°C° 0 mm 1 m/s 756 mmHg 85%
    22:00 +13°C° 0 mm 1 m/s 756 mmHg 88%
    23:00 +12°C° 0 mm 1 m/s 756 mmHg 91%

    Amanhã, 26 Agosto, Segunda-feira

    Tempo Temperatura Precipitação Vento Pressão Humidade
    00:00 +12°C° 0 mm 1 m/s 756 mmHg 91%
    01:00 +12°C° 0 mm 1 m/s 756 mmHg 90%
    02:00 +13°C° 0 mm 1 m/s 756 mmHg 90%
    03:00 +12°C° 0 mm 1 m/s 756 mmHg 91%
    04:00 +12°C° 0 mm 1 m/s 756 mmHg 91%
    05:00 +12°C° 0 mm 2 m/s 756 mmHg 92%
    06:00 +14°C° 0 mm 2 m/s 756 mmHg 86%
    07:00 +15°C° 0 mm 2 m/s 755 mmHg 80%
    08:00 +17°C° 0 mm 2 m/s 755 mmHg 75%
    09:00 +18°C° 0 mm 2 m/s 755 mmHg 69%
    10:00 +19°C° 0 mm 3 m/s 755 mmHg 64%
    11:00 +21°C° 0 mm 3 m/s 754 mmHg 58%
    12:00 +21°C° 0 mm 3 m/s 754 mmHg 57%
    13:00 +22°C° 0 mm 3 m/s 753 mmHg 55%
    14:00 +22°C° 0 mm 4 m/s 753 mmHg 54%
    15:00 +22°C° 0 mm 3 m/s 752 mmHg 59%
    16:00 +21°C° 0 mm 3 m/s 752 mmHg 64%
    17:00 +20°C° 0 mm 2 m/s 751 mmHg 69%
    18:00 +19°C° 0 mm 2 m/s 751 mmHg 73%
    19:00 +18°C° 0 mm 2 m/s 751 mmHg 77%
    20:00 +17°C° 0 mm 3 m/s 750 mmHg 81%
    21:00 +16°C° 0 mm 3 m/s 750 mmHg 81%
    22:00 +16°C° 0 mm 3 m/s 750 mmHg 81%
    23:00 +16°C° 0 mm 3 m/s 749 mmHg 82%

    Depois de amanhã, 27 Agosto, Terça-feira

    Tempo Temperatura Precipitação Vento Pressão Humidade
    00:00 +16°C° 0 mm 3 m/s 749 mmHg 83%
    01:00 +17°C° 0 mm 3 m/s 749 mmHg 84%
    02:00 +17°C° 0 mm 3 m/s 749 mmHg 85%
    03:00 +16°C° 0 mm 3 m/s 749 mmHg 88%
    04:00 +14°C° 0 mm 3 m/s 749 mmHg 92%
    05:00 +13°C° 0 mm 3 m/s 749 mmHg 96%
    06:00 +14°C° 0 mm 3 m/s 749 mmHg 87%
    07:00 +15°C° 0 mm 4 m/s 749 mmHg 78%
    08:00 +17°C° 0 mm 4 m/s 749 mmHg 69%
    09:00 +18°C° 0 mm 4 m/s 749 mmHg 64%
    10:00 +19°C° 0 mm 5 m/s 750 mmHg 60%
    11:00 +20°C° 0 mm 5 m/s 750 mmHg 55%
    12:00 +20°C° 0 mm 5 m/s 750 mmHg 55%
    13:00 +20°C° 0 mm 5 m/s 750 mmHg 54%
    14:00 +21°C° 0 mm 5 m/s 750 mmHg 54%
    15:00 +20°C° 0 mm 4 m/s 750 mmHg 57%
    16:00 +19°C° 0 mm 4 m/s 750 mmHg 61%
    17:00 +18°C° 0 mm 4 m/s 750 mmHg 64%
    18:00 +17°C° 0 mm 3 m/s 750 mmHg 69%
    19:00 +14°C° 0 mm 3 m/s 751 mmHg 74%
    20:00 +13°C° 0 mm 2 m/s 751 mmHg 79%
    21:00 +12°C° 0 mm 2 m/s 752 mmHg 80%
    22:00 +10°C° 0 mm 2 m/s 752 mmHg 82%
    23:00 +9°C° 0 mm 2 m/s 752 mmHg 83%

    28 Agosto, Quarta-feira

    Tempo Temperatura Precipitação Vento Pressão Humidade
    00:00 +8°C° 0 mm 2 m/s 752 mmHg 85%
    01:00 +7°C° 0 mm 2 m/s 753 mmHg 87%
    02:00 +6°C° 0 mm 2 m/s 753 mmHg 88%
    03:00 +6°C° 0 mm 2 m/s 753 mmHg 89%
    04:00 +5°C° 0 mm 2 m/s 753 mmHg 90%
    05:00 +5°C° 0 mm 2 m/s 754 mmHg 91%
    06:00 +5°C° 0 mm 3 m/s 754 mmHg 82%
    07:00 +7°C° 0 mm 3 m/s 754 mmHg 72%
    08:00 +8°C° 0 mm 3 m/s 754 mmHg 63%
    09:00 +10°C° 0 mm 3 m/s 754 mmHg 58%
    10:00 +11°C° 0 mm 3 m/s 755 mmHg 54%
    11:00 +12°C° 0 mm 3 m/s 755 mmHg 49%
    12:00 +13°C° 0 mm 3 m/s 755 mmHg 49%
    13:00 +13°C° 0 mm 3 m/s 755 mmHg 49%
    14:00 +14°C° 0 mm 3 m/s 755 mmHg 49%
    15:00 +14°C° 0 mm 3 m/s 755 mmHg 53%
    16:00 +13°C° 0 mm 3 m/s 755 mmHg 56%
    17:00 +14°C° 0 mm 2 m/s 755 mmHg 60%
    18:00 +12°C° 0 mm 2 m/s 755 mmHg 67%
    19:00 +9°C° 0 mm 2 m/s 755 mmHg 74%
    20:00 +8°C° 0 mm 1 m/s 755 mmHg 81%
    21:00 +8°C° 0 mm 1 m/s 755 mmHg 82%
    22:00 +7°C° 0 mm 1 m/s 756 mmHg 83%
    23:00 +7°C° 0 mm 1 m/s 756 mmHg 85%

    29 Agosto, Quinta-feira

    Tempo Temperatura Precipitação Vento Pressão Humidade
    00:00 +7°C° 0 mm 1 m/s 756 mmHg 86%
    01:00 +6°C° 0 mm 1 m/s 756 mmHg 86%
    02:00 +6°C° 0 mm 1 m/s 756 mmHg 87%
    03:00 +6°C° 0 mm 1 m/s 756 mmHg 87%
    04:00 +6°C° 0 mm 1 m/s 756 mmHg 87%
    05:00 +5°C° 0 mm 1 m/s 757 mmHg 87%
    06:00 +7°C° 0 mm 1 m/s 757 mmHg 79%
    07:00 +10°C° 0 mm 1 m/s 757 mmHg 71%
    08:00 +12°C° 0 mm 1 m/s 757 mmHg 63%
    09:00 +13°C° 0 mm 2 m/s 757 mmHg 59%
    10:00 +14°C° 0 mm 2 m/s 757 mmHg 54%
    11:00 +15°C° 0 mm 2 m/s 757 mmHg 50%
    12:00 +16°C° 0 mm 2 m/s 757 mmHg 50%
    13:00 +16°C° 0 mm 2 m/s 756 mmHg 49%
    14:00 +17°C° 0 mm 2 m/s 756 mmHg 49%
    15:00 +16°C° 0 mm 2 m/s 756 mmHg 54%
    16:00 +16°C° 0 mm 2 m/s 756 mmHg 59%
    17:00 +15°C° 0 mm 1 m/s 756 mmHg 65%
    18:00 +13°C° 0 mm 1 m/s 756 mmHg 71%
    19:00 +11°C° 0 mm 1 m/s 756 mmHg 78%
    20:00 +9°C° 0 mm 1 m/s 756 mmHg 85%
    21:00 +9°C° 0 mm 1 m/s 756 mmHg 86%
    22:00 +8°C° 0 mm 0 m/s 756 mmHg 87%
    23:00 +7°C° 0 mm 0 m/s 756 mmHg 88%

    30 Agosto, Sexta-feira

    Tempo Temperatura Precipitação Vento Pressão Humidade
    00:00 +7°C° 0 mm 0 m/s 756 mmHg 88%
    01:00 +7°C° 0 mm 0 m/s 756 mmHg 89%
    02:00 +7°C° 0 mm 0 m/s 756 mmHg 90%
    03:00 +8°C° 0 mm 1 m/s 756 mmHg 88%
    04:00 +9°C° 0 mm 1 m/s 756 mmHg 86%
    05:00 +9°C° 0 mm 1 m/s 756 mmHg 83%
    06:00 +10°C° 0 mm 1 m/s 756 mmHg 79%
    07:00 +12°C° 0 mm 2 m/s 755 mmHg 75%
    08:00 +13°C° 0 mm 2 m/s 755 mmHg 71%
    09:00 +15°C° 0 mm 2 m/s 755 mmHg 67%
    10:00 +17°C° 0 mm 2 m/s 755 mmHg 63%
    11:00 +19°C° 0 mm 3 m/s 755 mmHg 59%
    12:00 +20°C° 0 mm 3 m/s 754 mmHg 58%
    13:00 +21°C° 0 mm 3 m/s 754 mmHg 57%
    14:00 +21°C° 0 mm 3 m/s 753 mmHg 56%
    15:00 +21°C° 0 mm 3 m/s 753 mmHg 61%
    16:00 +20°C° 0 mm 2 m/s 753 mmHg 67%
    17:00 +19°C° 0 mm 2 m/s 753 mmHg 72%
    18:00 +18°C° 0 mm 2 m/s 753 mmHg 78%
    19:00 +16°C° 0 mm 2 m/s 753 mmHg 83%
    20:00 +14°C° 0 mm 2 m/s 753 mmHg 88%
    21:00 +14°C° 0 mm 2 m/s 753 mmHg 90%
    22:00 +13°C° 0 mm 2 m/s 753 mmHg 92%
    23:00 +13°C° 0 mm 1 m/s 753 mmHg 94%
    Mostrar mais